Terminal Aerodrome Forecast
Issued by NWS Spokane, WA

Home | Current Version | Previous Version | Text Only | Print | Product List | Glossary On
Versions: 1 2 3 4 5 6 7 8 9 10 11 12 13 14 15 16 17 18 19 20 21 22 23 24 25 26 27 28 29 30 31 32
000
FTUS46 KOTX 261726
TAFGEG
TAF
KGEG 261726Z 2618/2718 06005KT P6SM FEW100
     FM262100 22006KT P6SM SKC
     FM270500 VRB03KT P6SM SKC
     FM271200 09004KT P6SM SKC=

USA.gov is the U.S. government's official web portal to all federal, state and local government web resources and services.